Location: Fuglau
(48.6333°N, 15.5500°E)
Time: 04:04:38
(UTC+00:00)

CZ-4 R/B - Pass Details

Date: 27 February 2020
Orbit: 531 x 599 km, 97.8° (Epoch: 09 April)

Event Time Altitude Azimuth Distance (km) Brightness Sun altitude
Rises 17:40:04 0° 181° (S) 2,824 5.0 -11.1°
Reaches altitude 10° 17:42:19 10° 187° (S) 1,921 4.2 -11.5°
Maximum altitude 17:46:20 45° 261° (W) 803 2.7 -12.2°
Drops below altitude 10° 17:50:19 10° 335° (NNW) 1,905 4.4 -12.8°
Sets 17:52:32 0° 342° (NNW) 2,798 5.2 -13.2°
